Simultaneous Nadir Overpasses (SNOs) Predictions

Prediction of SNOs between METOP-B and TERRA Satellite Orbit:

Table of predicted SNOs for the next 14.0 days since TLE Epoch: 4/20/2017
Index Date (METOP-B) Time (METOP-B) Lat,Lon (METOP-B) SZA (METOP-B ) Date (TERRA) Time (TERRA) Lat,Lon (TERRA) SZA (TERRA ) Distance(km) Time Diff (sec)
1 04/23/2017 00:17:08 81.32,-136.70 71.73 04/23/2017 00:17:37 81.33,-136.58 71.76 2.18 29
2 04/23/2017 01:07:48 -81.33, 31.07 108.23 04/23/2017 01:07:04 -81.32, 30.98 108.27 1.76 44
3 04/25/2017 19:51:30 81.32, -70.45 70.81 04/25/2017 19:51:53 81.32, -70.26 70.84 3.24 23
4 04/25/2017 20:42:09 -81.33, 97.75 109.10 04/25/2017 20:41:19 -81.34, 97.69 109.13 1.17 50
5 04/28/2017 15:25:51 81.33, -3.82 69.96 04/28/2017 15:26:08 81.33, -3.68 69.99 2.43 17
6 04/28/2017 16:16:31 -81.33, 164.02 109.99 04/28/2017 16:15:35 -81.33, 163.91 110.04 2.06 56
7 05/01/2017 11:00:11 81.33, 62.80 69.14 05/01/2017 11:00:22 81.33, 62.78 69.15 0.39 11
8 05/01/2017 11:50:52 -81.33,-129.72 110.86 05/01/2017 11:49:49 -81.33,-129.62 110.88 1.74 63
9 05/04/2017 06:34:33 81.33, 129.01 68.30 05/04/2017 06:34:37 81.33, 129.12 68.32 1.96 4




NCC Satellite Simultaneous Nadir Overpasses (SNOs) Prediction Service
